Terminal Aerodrome Forecast
Issued by NWS Cleveland, OH

Home | Current Version | Previous Version | Graphics & Text | Print | Product List | Glossary On
Versions: 1 2 3 4 5 6 7 8 9 10 11 12 13 14 15 16 17
752
FTUS41 KCLE 042020 AAA
TAFYNG
TAF AMD
KYNG 042020Z 0420/0518 28010KT P6SM -SN SCT015 OVC035
     FM050200 30008KT P6SM -SN OVC015
      TEMPO 0502/0506 3SM -SN BKN008 OVC015
     FM051000 28008KT P6SM BKN015 OVC025
      TEMPO 0516/0518 SCT025 BKN035=

USA.gov is the U.S. government's official web portal to all federal, state and local government web resources and services.